Tracking 29040 objects as of 16-Jun-2024
HD Live streaming from Space Station
objects crossing your sky now

STARLINK-1294

Track STARLINK-1294 now!
10-day predictions
STARLINK-1294 is classified as:


NORAD ID: 45551
Int'l Code: 2020-025W
Perigee: 553.6 km
Apogee: 555.0 km
Inclination: 53.1 °
Period: 95.6 minutes
Semi major axis: 6925 km
RCS: Unknown
Launch date: April 22, 2020
Source: United States (US)
Launch site: AIR FORCE EASTERN TEST RANGE (AFETR)
Your satellite tracking list
Your tracking list is empty




NASA's NSSDC Master Catalog

Two Line Element Set (TLE):
1 45551U 20025W   24168.34593493  .00007388  00000-0  51418-3 0  9998
2 45551  53.0535  40.8276 0001015  90.8621 269.2484 15.06413701230214
Source of the keplerian elements: AFSPC